Dewpoint
55 55 55 54 55 56 56 59 58 56 57 57 56 56 56 55 53 51 49 48 47 45 43 41 39 38 37 36 34 35 35 37 37 37 36 36 36 36 33 30 30 33 34 32 30 33 33 32 31 33 35 36 35 33 32 30 31 33 32 31 30 31 32 32 31 31 33 34 33 31 32 32 30 30 30 31 31 30 35 31 32 33 30 31 32
54 55 56 58 58 58 59 59 59 56 58 57 58 57 55 53 51 49 48 46 44 41 40 40 39 38 36 33 34 32 33 34 35 35 34 35 36 34 34 32 33 31 32 28 29 30 34 33 31 33 34 33 34 29 29 30 28 28 28 28 27 30 33 31 31 31 31 33 32 31 30 30 29 30 31 32 32 32 30 30 30 30 30 32 30
52 54 56 58 58 59 60 59 58 58 58 59 58 55 53 52 49 48 45 44 42 41 40 39 38 36 34 35 32 33 33 32 34 34 34 33 31 34 34 34 33 32 30 28 25 29 31 33 32 33 34 34 34 33 32 29 29 27 27 27 30 31 29 32 32 31 31 31 32 30 31 30 32 29 29 30 32 30 30 30 30 30 31 33 34
51 54 56 57 58 58 59 58 59 57 58 58 57 54 52 49 46 44 43 42 40 41 39 37 38 37 34 31 30 31 31 33 34 34 33 32 32 32 31 32 31 30 29 27 27 28 29 31 33 34 34 33 33 32 31 31 30 29 29 31 31 30 31 33 33 33 32 30 30 29 30 31 30 30 29 30 30 30 30 30 31 31 31 32 34
52 52 54 57 58 58 60 59 58 59 59 57 55 52 50 47 45 42 42 41 39 39 39 38 37 35 35 29 29 29 30 30 31 32 34 35 33 35 33 31 31 30 30 29 30 29 31 31 31 33 33 33 33 31 31 32 28 30 30 30 30 31 31 32 32 33 32 31 30 30 31 31 31 31 30 29 30 30 30 31 30 31 31 34 34
54 53 54 56 57 59 60 60 59 59 57 55 53 50 48 47 44 43 39 40 40 38 38 36 33 29 29 30 30 30 32 33 32 31 31 32 35 35 34 33 32 29 29 30 28 29 31 30 32 33 32 32 33 33 33 32 30 30 30 30 29 30 31 31 31 31 31 30 30 29 31 31 31 32 32 32 32 31 31 31 32 32 33 34 34
55 54 55 55 55 58 59 59 59 57 55 53 51 48 46 45 42 39 39 39 39 38 36 36 35 31 31 33 33 35 35 36 37 36 33 32 33 32 33 32 31 33 31 29 29 30 30 30 33 33 32 31 33 33 32 33 31 32 31 31 30 31 30 29 29 29 29 29 28 30 30 31 32 31 31 32 32 32 32 32 32 31 32 33 34
55 55 56 57 56 59 59 58 57 55 53 51 48 47 45 43 42 41 40 38 36 34 34 34 34 31 33 33 34 35 33 32 32 34 35 34 33 32 32 32 31 31 32 30 32 31 30 30 32 31 31 32 33 33 33 32 31 32 31 31 30 30 30 29 29 28 28 28 27 27 29 30 31 32 31 32 32 32 32 32 31 31 32 33 33
55 55 56 57 58 59 58 57 55 52 49 48 47 46 44 43 42 41 40 39 38 35 34 32 31 31 31 34 33 34 35 35 34 34 35 34 34 31 31 30 31 30 30 30 31 30 29 30 31 31 35 34 34 33 33 32 31 30 31 31 30 30 30 30 29 28 27 27 27 28 28 29 30 31 31 31 31 31 33 33 32 32 31 31 32
55 55 56 57 58 56 55 54 51 50 48 47 46 44 43 42 41 39 38 37 37 36 34 33 31 32 32 33 35 37 37 37 35 35 35 34 36 31 31 30 30 30 30 31 31 30 29 30 33 33 33 32 32 32 32 31 32 32 32 31 31 30 30 30 28 28 28 27 27 28 28 28 29 32 32 32 32 33 33 32 31 31 31 31 32
55 55 55 57 55 54 53 50 49 48 47 46 45 42 40 41 39 38 38 38 38 36 35 32 32 32 33 35 36 37 36 35 35 33 32 33 35 36 33 30 31 30 29 30 29 29 29 30 33 33 32 30 30 31 30 30 31 31 32 33 33 30 29 28 27 28 27 27 27 27 27 28 30 31 32 31 33 33 33 33 32 32 32 30 28
55 55 55 55 54 52 51 49 47 47 46 43 42 41 41 40 40 39 40 40 39 38 36 34 35 35 36 36 38 37 35 35 35 34 33 32 33 35 34 29 32 30 30 29 28 29 30 32 32 31 30 30 31 29 28 30 30 31 32 32 31 32 32 30 29 27 28 27 27 28 28 28 29 30 31 32 32 33 33 33 33 32 31 30 31
55 55 54 52 51 52 49 47 46 45 43 42 42 41 39 39 39 39 39 39 39 37 36 36 36 36 37 36 36 36 35 35 35 35 34 33 34 34 31 31 32 31 31 29 29 29 31 31 31 31 28 31 31 27 25 26 29 30 32 31 31 32 31 31 33 30 28 28 28 28 28 28 29 30 32 33 34 32 33 33 32 32 32 33 32
54 53 52 51 50 49 48 46 45 44 44 43 42 40 39 39 41 41 39 39 38 37 37 37 36 36 37 37 36 35 34 35 34 34 34 34 34 34 35 33 35 32 30 30 31 30 31 29 30 30 29 29 31 29 25 26 27 29 29 29 29 30 30 31 31 32 30 29 29 28 29 30 30 31 32 32 33 33 33 32 33 32 33 33 35
53 52 51 50 50 48 46 45 44 44 43 42 42 40 41 42 40 39 39 38 37 37 36 36 37 37 37 37 37 34 32 34 34 34 33 33 34 35 35 35 32 31 31 31 31 30 29 27 29 29 27 27 32 29 26 26 27 29 28 27 27 28 29 29 29 28 28 29 29 29 29 30 30 30 31 31 32 35 35 34 34 35 36 36 37
50 51 50 49 48 47 46 45 44 43 42 42 41 41 41 41 41 40 39 37 37 36 35 35 36 36 37 38 37 36 32 33 34 33 33 33 34 36 31 33 31 30 30 30 28 29 27 27 27 29 25 25 30 29 28 27 27 27 26 26 26 27 28 29 31 31 29 29 30 30 30 30 32 33 34 33 33 37 37 35 35 35 34 34 34
49 50 50 49 48 46 45 44 44 43 42 41 40 41 42 41 40 39 38 38 36 35 36 35 35 35 35 36 37 37 34 31 33 32 32 32 33 34 32 28 28 28 29 31 27 27 28 28 27 27 23 23 28 27 27 28 26 25 25 27 27 26 26 27 29 30 31 32 33 33 33 33 33 34 35 35 37 36 36 33 32 32 33 32 33
49 49 49 47 47 46 45 43 43 42 41 40 41 42 42 41 40 39 37 36 35 34 34 34 36 37 36 34 35 37 36 30 31 31 30 32 32 34 28 25 29 28 26 28 28 26 26 27 28 29 24 22 26 27 26 27 25 24 25 26 24 22 24 26 27 29 31 32 32 32 32 32 33 34 34 35 35 34 35 31 33 34 32 34 33
49 48 47 46 46 45 44 44 43 42 40 41 43 42 41 41 40 39 37 36 35 34 33 35 36 37 37 33 29 36 36 32 29 31 30 31 31 34 28 22 25 27 26 24 27 25 25 26 33 29 26 25 27 26 26 26 25 25 25 25 20 22 24 26 26 27 29 29 28 28 28 31 31 31 32 34 34 34 37 35 35 34 32 33 34
46 47 46 46 46 45 45 45 44 42 41 43 43 42 41 40 40 39 36 32 31 31 31 33 33 33 35 36 35 35 34 33 29 30 30 30 30 32 30 22 22 24 26 24 23 25 24 25 27 29 27 25 26 26 25 25 24 25 25 20 21 23 24 25 27 28 27 27 27 29 30 30 30 31 31 32 32 32 35 37 37 36 34 33 33
47 46 46 45 44 44 44 44 44 44 43 42 43 42 40 40 40 38 35 33 33 32 34 34 33 33 34 34 34 35 33 36 34 30 29 29 30 31 28 26 21 24 26 23 22 22 22 21 23 28 26 25 26 26 25 25 24 25 22 19 22 24 25 25 28 29 27 29 28 27 27 27 29 29 29 29 29 30 32 35 38 39 37 35 34
45 45 44 43 44 44 45 46 46 44 43 43 43 41 41 40 39 37 33 34 35 35 34 32 31 30 32 31 32 33 29 25 36 31 28 28 30 30 27 27 23 26 28 24 22 23 23 20 23 26 26 25 26 26 26 26 25 23 20 21 24 25 24 27 26 25 25 26 24 24 25 25 25 27 27 28 29 31 31 31 32 33 38 40 38
44 44 43 42 44 45 46 47 46 44 44 43 41 41 40 40 38 37 35 34 35 35 34 32 32 31 30 30 30 31 33 30 24 33 30 29 29 29 29 28 27 29 27 26 23 23 22 23 23 25 25 27 27 27 27 27 26 21 22 25 25 26 27 22 24 24 24 25 26 26 25 25 24 25 27 26 28 30 30 31 32 32 33 35 40
43 43 44 44 45 45 45 45 44 44 44 42 42 41 40 39 36 34 32 32 31 33 30 30 29 29 29 27 28 28 29 31 28 27 31 29 29 29 29 28 28 26 29 27 21 22 21 23 23 25 27 27 27 27 27 28 22 23 25 25 25 25 18 20 20 23 24 23 25 24 24 24 23 23 25 27 28 31 31 32 32 32 32 33 34
44 44 44 43 44 42 41 41 42 42 42 41 40 39 40 38 33 33 33 32 29 29 26 27 28 27 27 27 26 25 28 28 32 30 31 30 29 30 30 29 28 28 30 26 25 25 26 26 27 28 27 28 28 28 26 27 26 25 26 26 24 16 17 16 19 22 21 22 23 24 24 23 24 25 27 28 30 31 32 31 32 33 33 33 34
45 43 43 43 41 39 40 40 39 41 40 39 39 38 38 34 32 30 30 30 27 28 26 22 23 24 24 24 25 26 28 29 30 33 31 31 31 30 31 31 29 29 29 28 29 29 28 29 30 30 28 26 25 24 23 22 25 27 26 23 18 14 15 14 17 20 21 20 23 23 22 23 23 26 28 28 28 28 29 29 30 30 31 31 32
44 43 43 42 42 41 42 39 39 40 39 37 36 36 33 32 33 29 30 27 27 24 24 23 22 22 23 26 25 25 27 27 26 29 28 26 26 29 33 33 33 33 31 23 26 24 26 27 26 27 27 29 30 30 25 22 19 18 14 14 17 14 15 15 17 19 20 20 22 23 23 23 24 25 25 25 27 28 29 29 29 29 30 30 31
44 43 43 41 40 41 39 39 39 37 37 37 34 33 32 32 31 29 27 27 25 24 24 22 21 22 23 23 24 23 24 25 27 27 28 22 22 18 22 24 24 24 21 19 22 25 28 29 28 24 23 23 20 19 18 20 17 16 15 13 13 13 16 17 17 18 21 22 22 23 23 24 22 23 24 25 26 27 29 29 29 28 29 30 30
44 44 42 40 40 39 39 38 37 35 36 36 34 33 31 32 32 31 31 28 26 27 26 26 24 24 22 22 23 26 24 25 29 28 28 29 23 23 21 21 20 21 25 25 25 28 26 23 22 20 18 20 17 18 15 16 15 16 19 16 14 11 13 10 12 17 19 21 21 22 22 21 21 22 24 23 26 26 28 28 29 29 29 29 29
45 44 41 40 40 38 39 36 36 35 35 33 34 36 34 36 38 32 31 36 32 32 34 33 33 24 26 26 29 29 28 33 30 29 29 29 28 27 26 26 25 24 25 26 25 27 24 21 19 16 16 16 16 15 16 16 16 14 14 17 13 10 10 12 10 16 20 20 19 22 21 22 22 20 21 23 24 25 26 28 28 28 28 27 28
42 41 40 39 38 39 38 36 36 35 35 34 34 33 32 32 33 33 34 33 31 30 31 30 30 31 35 28 32 32 33 33 32 31 29 28 28 27 25 24 24 25 25 24 26 23 20 18 17 16 16 16 17 17 16 16 17 17 13 12 11 11 11 10 12 17 17 18 19 20 21 21 20 21 22 23 23 24 25 27 27 28 27 27 27
42 40 39 40 38 38 37 37 37 36 33 33 32 32 28 28 30 34 34 33 33 32 32 32 31 29 29 32 31 26 31 34 34 31 29 29 28 28 27 26 25 25 25 25 26 21 18 17 17 17 16 18 16 16 16 16 16 17 13 16 12 12 9 11 14 14 14 15 17 18 19 20 20 20 21 21 23 24 25 25 26 26 27 27 28
44 42 40 40 37 37 36 37 37 36 36 34 34 32 28 27 26 27 30 34 33 34 33 34 33 32 32 30 29 32 31 31 34 31 29 27 28 28 27 26 24 25 26 26 25 20 18 17 19 17 17 16 16 16 16 16 16 16 13 11 13 10 10 14 14 11 14 16 16 17 18 18 19 19 21 21 21 23 25 25 26 26 27 26 27
45 43 41 41 38 37 37 38 36 35 34 34 32 31 29 31 28 28 26 25 26 31 34 34 34 33 32 32 33 31 34 34 33 31 29 29 28 28 28 25 27 26 25 25 21 19 17 19 17 19 20 18 18 20 18 20 20 16 15 14 14 13 13 11 10 10 14 14 14 17 17 19 19 19 20 21 22 23 25 24 26 25 25 26 26
45 39 38 37 39 38 38 37 36 36 35 35 32 31 32 31 31 30 28 26 26 23 23 26 32 33 27 31 33 35 34 34 33 31 29 28 28 28 28 23 23 25 24 26 20 19 19 20 18 22 17 19 16 16 18 19 16 16 13 12 12 12 9 7 10 12 11 14 14 16 17 19 18 20 20 21 22 23 25 25 25 25 26 26 26
45 43 41 39 40 39 38 38 37 36 35 34 34 32 31 30 30 30 30 28 27 25 25 25 27 30 32 30 33 33 34 34 33 31 30 29 28 28 23 25 18 18 17 18 18 17 19 20 17 23 16 16 21 18 17 17 17 15 13 13 12 11 8 9 11 11 14 13 14 14 17 16 18 17 18 21 23 23 24 25 25 26 27 26 26
45 43 41 40 40 40 39 39 39 37 33 34 32 32 31 31 30 31 30 29 29 27 27 26 28 30 30 27 34 33 34 33 33 31 30 29 28 25 20 19 19 17 16 19 19 17 17 19 17 17 20 17 17 17 17 17 16 16 18 14 12 11 10 9 10 12 10 10 12 13 16 16 17 18 18 19 20 22 23 24 25 25 26 27 27
46 43 42 41 42 42 41 39 37 33 34 34 34 33 32 32 31 30 29 30 28 28 25 25 30 27 25 24 32 29 31 33 32 30 29 28 24 22 21 19 18 15 17 15 19 16 16 17 17 20 17 16 17 17 18 19 16 16 14 15 12 10 13 9 10 10 11 9 12 13 15 16 16 18 18 18 20 21 21 23 23 24 25 26 26
46 40 37 36 37 41 40 38 37 35 35 35 34 34 32 33 33 31 30 30 28 28 26 25 26 28 26 24 28 29 30 28 26 24 23 22 22 20 19 20 18 17 18 18 19 17 18 17 20 20 18 16 22 18 16 16 16 15 16 13 12 10 9 9 7 7 9 9 16 15 16 15 17 16 19 19 19 20 21 22 23 24 24 25 26
45 43 38 35 38 39 39 38 37 35 34 34 35 34 32 31 31 30 30 29 29 28 26 25 24 26 25 26 28 29 28 26 25 23 23 23 22 23 20 18 19 19 17 18 18 19 18 17 17 17 17 18 21 17 16 17 18 15 14 12 9 13 7 10 7 8 10 12 14 15 16 18 19 17 18 18 19 20 22 22 22 24 24 25 26
44 43 38 36 36 38 38 37 37 36 36 35 35 33 33 32 32 30 30 30 29 28 28 28 26 26 26 25 31 29 27 25 25 24 22 22 21 21 20 18 18 17 17 16 18 19 17 16 16 16 21 19 17 17 18 17 17 15 14 12 10 10 8 11 12 15 14 16 16 16 16 17 19 17 17 18 20 21 20 23 22 22 24 25 26
44 42 41 38 37 38 37 38 37 36 35 35 34 34 33 32 32 31 31 30 29 28 28 28 27 26 28 31 31 31 27 24 24 24 24 22 21 20 20 20 19 18 16 17 19 20 19 22 23 17 18 18 18 18 17 19 15 16 14 12 9 9 11 9 11 15 14 16 16 17 19 18 18 18 19 20 19 19 20 20 22 22 23 25 26
44 42 41 38 38 37 36 36 36 36 34 35 34 32 33 33 32 31 31 30 29 29 28 28 27 27 28 30 31 31 27 23 25 24 22 22 21 21 20 20 19 19 18 18 20 23 17 18 20 18 18 18 19 17 17 17 15 15 14 14 10 10 11 11 11 12 12 14 15 18 19 18 17 17 18 19 19 21 20 20 23 22 23 25 26
43 42 39 38 37 37 38 38 36 35 35 35 34 33 33 33 32 33 31 32 31 30 29 29 27 26 29 30 30 29 26 24 23 23 23 23 23 23 21 19 19 20 19 18 20 19 18 20 20 18 22 19 20 23 20 19 18 16 15 13 12 12 10 11 14 11 13 14 15 16 16 17 18 18 18 17 19 19 19 21 23 23 23 24 25
44 41 39 38 39 38 37 36 36 36 35 34 34 34 33 33 33 32 31 31 31 30 30 28 27 28 27 29 28 27 26 24 23 24 23 23 22 21 20 20 21 21 19 22 22 21 20 19 19 21 23 20 20 20 20 18 19 17 16 15 14 11 10 15 11 12 17 16 15 15 15 15 17 17 16 16 18 19 18 21 22 23 24 25 25
43 42 39 37 37 36 37 36 35 36 34 34 34 34 33 32 32 33 31 32 31 31 29 28 27 27 27 29 28 28 27 25 24 24 24 23 22 22 21 21 21 21 20 18 23 22 19 19 19 20 20 20 20 19 18 21 19 19 20 18 17 14 14 13 12 13 15 17 16 14 15 18 19 18 19 17 17 18 20 22 22 23 23 24 25
45 43 40 39 38 37 36 37 36 35 35 34 34 34 34 33 32 32 32 32 31 30 30 29 27 27 28 27 28 27 26 25 24 24 26 26 24 22 23 22 21 22 20 19 23 22 22 20 19 23 20 21 21 23 20 16 16 14 18 13 14 14 12 8 9 14 15 15 15 14 19 18 19 17 17 19 18 18 21 20 20 23 23 23 24
44 42 41 40 39 37 37 36 36 34 35 34 34 37 35 33 33 32 32 37 30 30 30 29 28 27 27 26 27 27 26 24 24 24 24 24 24 23 23 25 25 23 22 20 22 22 20 20 20 21 21 22 21 20 19 18 16 15 14 11 10 10 11 13 11 14 14 12 13 17 18 17 16 17 18 19 18 21 19 18 20 20 22 23 22
43 43 41 39 38 37 37 36 36 35 35 34 35 42 33 34 38 32 32 35 31 30 30 29 29 27 26 26 26 27 26 26 23 24 23 23 24 24 24 25 26 23 21 21 21 23 22 21 22 21 21 21 21 21 19 19 15 15 16 13 14 16 15 14 14 12 14 15 15 14 16 17 17 18 19 18 18 19 18 20 20 21 21 22 22
42 42 41 39 38 37 37 36 36 36 35 35 34 33 33 33 33 33 34 32 31 30 29 29 28 27 26 26 26 26 26 26 24 24 24 24 23 24 23 25 26 24 21 22 23 22 22 22 24 23 22 22 21 21 19 18 17 15 14 13 16 14 13 15 15 15 15 13 13 14 17 18 18 16 16 16 17 18 19 19 20 20 19 21 21
42 42 40 40 39 38 37 37 37 36 36 35 35 34 33 36 34 32 31 32 31 30 29 29 28 27 27 26 27 26 25 26 25 24 25 25 24 24 26 27 26 26 24 23 22 21 22 21 22 22 21 23 21 20 19 17 16 16 18 17 15 13 14 14 13 15 16 16 15 15 16 18 18 17 18 17 15 17 19 20 18 19 18 18 19